Flag for Canada Weather past 2 weeks in Kawartha Lakes, Ontario, Canada

Now
77 °F

Warm.


Feels Like: 79 °F
Forecast: N/A
Wind: 1 mph from West

Location: Lagoon City

Current Time: Aug 22, 2014 at 6:18:51 PM

Latest Report: Aug 22, 2014 at 6:00 PM


Visibility: N/A

Pressure: 29.98 "Hg

Humidity: 51%

Dew point: 58 °F

Location of Kawartha LakesLocation

Historic Weather in Kawartha Lakes — Graph

°F

Kawartha Lakes temperature yesterday

Maximum temperature yesterday: 73 °F (at 7:00 PM)
Minimum temperature yesterday: 64 °F (at 11:00 PM)
Average temperature yesterday: 68 °F

Past Weeks' High & Low Weather Summary

 TemperatureHumidityPressure
High80 °F (Aug 11, 3:00 PM)99% (Aug 10, 3:00 AM)30.18 "Hg (Aug 10, 3:00 AM)
Low51 °F (Aug 14, 11:00 PM)34% (Aug 7, 4:00 PM)29.65 "Hg (Aug 12, 7:00 PM)
Average64 °F78%29.93 "Hg
* Reported Aug 7 4:00 PM — Aug 22 4:00 PM, Kawartha Lakes, Weather by CustomWeather, © 2014

Note: Actual official high and low records may vary slightly from our data, if they occured in-between our weather recording intervals... More about our weather records

Advertising

Kawartha Lakes weather history for previous 24 hours

 ConditionsComfort  
Time TempWeatherWind HumidityBarometerVisibility
4:00 PM
Aug 22
71 °FMild.5 mph76%29.98 "HgN/A
3:00 PM68 °FMild.10 mph81%30.00 "HgN/A
2:00 PM68 °FMild.8 mph84%30.00 "HgN/A
1:00 PM67 °FMild.5 mph83%30.00 "HgN/A
12:00 PM65 °FMild.3 mph83%30.01 "HgN/A
11:00 AM66 °FMild.5 mph87%30.01 "HgN/A
10:00 AM66 °FMild.2 mph86%30.01 "HgN/A
9:00 AM65 °FMild.2 mph89%30.00 "HgN/A
8:00 AM64 °FMild.2 mph93%29.98 "HgN/A
7:00 AM64 °FMild.2 mph94%29.97 "HgN/A
6:00 AM64 °FMild.3 mph94%29.96 "HgN/A
5:00 AM64 °FMild.3 mph94%29.96 "HgN/A
4:00 AM64 °FMild.3 mph94%29.96 "HgN/A
3:00 AM65 °FMild.5 mph92%29.97 "HgN/A
2:00 AM65 °FMild.2 mph91%29.97 "HgN/A
1:00 AM65 °FMild.3 mph85%29.97 "HgN/A
12:00 AM65 °FMild.6 mph90%29.97 "HgN/A
11:00 PM
Aug 21
64 °FMild.3 mph97%29.96 "HgN/A
10:00 PM66 °FMild.7 mph90%29.96 "HgN/A
9:00 PM67 °FMild.6 mph87%29.97 "HgN/A
8:00 PM70 °FMild.10 mph79%29.95 "HgN/A
7:00 PM73 °FMild.9 mph74%29.94 "HgN/A
6:00 PM71 °FMild.5 mph83%29.94 "HgN/A
Weather by CustomWeather, © 2014

See weather overviewHow to use our weather pages